Regional Weather Roundup
Issued by NWS Goodland, KS

Home | Current Version | Previous Version | Graphics & Text | Print | Product List | Glossary Off
Versions: 1 2 3 4 5 6 7 8 9 10 11 12 13 14 15 16 17 18 19 20 21 22 23 24 25 26 27 28 29 30 31 32 33 34 35 36 37 38 39 40 41 42 43 44 45 46 47 48 49 50

000
ASUS43 KGLD 210159
RWRGLD

GOODLAND FORECAST AREA HOURLY WEATHER ROUNDUP
NATIONAL WEATHER SERVICE GOODLAND KS
800 PM MDT WED SEP 20 2017

...OFFICIAL OBSERVATIONS...

CITY           SKY/WX    TMP DP  RH WIND       PRES   REMARKS
GOODLAND KS    CLEAR     61  35  37 SE10      29.89S
HILL CITY KS   CLEAR     65  38  36 NE3       29.88R
IMPERIAL NEB   CLEAR     56  34  43 SE7       29.88R
MCCOOK NEB     CLEAR     63  38  39 E7        29.89R
AKRON CO       CLEAR     64  28  25 SE13      29.89R
BURLINGTON CO  CLEAR     60  35  39 SE9       29.91R
LIMON CO       CLEAR     60  30  32 SE13      29.92R
$$

...UNOFFICIAL OBSERVATIONS...

CITY           SKY/WX    TMP DP  RH WIND       PRES   REMARKS
LENORA KS        N/A     68  32  26 MISG        N/A
NORTON KS      CLEAR     59  34  38 CALM      29.88R
SHARON SPRINGS   N/A     61  38  41 CALM        N/A
TRENTON NEB      N/A     62  32  32 S7          N/A
KIT CARSON CO    N/A     66  34  31 MISG        N/A
YUMA CO        FAIR      61  21  21 SE7       29.88R
$$




USA.gov is the U.S. government's official web portal to all federal, state and local government web resources and services.